Year,Month,Day,Hour,Minute,Value (Times are PST for temperature in C)
2009,08,05,00,00,11.90
2009,08,05,00,01,11.90
2009,08,05,00,02,11.90
2009,08,05,00,03,11.80
2009,08,05,00,04,11.80
2009,08,05,00,05,11.80
2009,08,05,00,06,11.80
2009,08,05,00,07,11.80
2009,08,05,00,08,11.80
2009,08,05,00,09,11.80
2009,08,05,00,10,11.70
2009,08,05,00,11,11.70
2009,08,05,00,12,11.70
2009,08,05,00,13,11.70
2009,08,05,00,14,11.70
2009,08,05,00,15,11.70
2009,08,05,00,16,11.70
2009,08,05,00,17,11.70
2009,08,05,00,18,11.70
2009,08,05,00,19,11.70
2009,08,05,00,20,11.60
2009,08,05,00,21,11.60
2009,08,05,00,22,11.60
2009,08,05,00,23,11.60
2009,08,05,00,24,11.60
2009,08,05,00,25,11.60
2009,08,05,00,26,11.60
2009,08,05,00,27,11.60
2009,08,05,00,28,11.60
2009,08,05,00,29,11.60
2009,08,05,00,30,11.60
2009,08,05,00,31,11.60
2009,08,05,00,32,11.60
2009,08,05,00,33,11.50
2009,08,05,00,34,11.50
2009,08,05,00,35,11.50
2009,08,05,00,36,11.50
2009,08,05,00,37,11.50
2009,08,05,00,38,11.50
2009,08,05,00,39,11.50
2009,08,05,00,40,11.50
2009,08,05,00,41,11.40
2009,08,05,00,42,11.40
2009,08,05,00,43,11.40
2009,08,05,00,44,11.40
2009,08,05,00,45,11.40
2009,08,05,00,46,11.40
2009,08,05,00,47,11.40
2009,08,05,00,48,11.40
2009,08,05,00,49,11.40
2009,08,05,00,50,11.40
2009,08,05,00,51,11.40
2009,08,05,00,52,11.40
2009,08,05,00,53,11.40
2009,08,05,00,54,11.40
2009,08,05,00,55,11.40
2009,08,05,00,56,11.40
2009,08,05,00,57,11.40
2009,08,05,00,58,11.40
2009,08,05,00,59,11.40
2009,08,05,01,00,11.40
2009,08,05,01,01,11.40
2009,08,05,01,02,11.40
2009,08,05,01,03,11.40
2009,08,05,01,04,11.40
2009,08,05,01,05,11.40
2009,08,05,01,06,11.40
2009,08,05,01,07,11.40
2009,08,05,01,08,11.50
2009,08,05,01,09,11.50
2009,08,05,01,10,11.50
2009,08,05,01,11,11.50
2009,08,05,01,12,11.50
2009,08,05,01,13,11.50
2009,08,05,01,14,11.50
2009,08,05,01,15,11.50
2009,08,05,01,16,11.50
2009,08,05,01,17,11.50
2009,08,05,01,18,11.50
2009,08,05,01,19,11.50
2009,08,05,01,20,11.50
2009,08,05,01,21,11.50
2009,08,05,01,22,11.50
2009,08,05,01,23,11.50
2009,08,05,01,24,11.50
2009,08,05,01,25,11.50
2009,08,05,01,26,11.50
2009,08,05,01,27,11.50
2009,08,05,01,28,11.50
2009,08,05,01,29,11.40
2009,08,05,01,30,11.40
2009,08,05,01,31,11.40
2009,08,05,01,32,11.40
2009,08,05,01,33,11.40
2009,08,05,01,34,11.40
2009,08,05,01,35,11.40
2009,08,05,01,36,11.40
2009,08,05,01,37,11.40
2009,08,05,01,38,11.40
2009,08,05,01,39,11.40
2009,08,05,01,40,11.40
2009,08,05,01,41,11.30
2009,08,05,01,42,11.30
2009,08,05,01,43,11.30
2009,08,05,01,44,11.30
2009,08,05,01,45,11.30
2009,08,05,01,46,11.30
2009,08,05,01,47,11.30
2009,08,05,01,48,11.30
2009,08,05,01,49,11.30
2009,08,05,01,50,11.30
2009,08,05,01,51,11.30
2009,08,05,01,52,11.20
2009,08,05,01,53,11.20
2009,08,05,01,54,11.20
2009,08,05,01,55,11.20
2009,08,05,01,56,11.20
2009,08,05,01,57,11.20
2009,08,05,01,58,11.20
2009,08,05,01,59,11.20
2009,08,05,02,00,11.20
2009,08,05,02,01,11.20
2009,08,05,02,02,11.20
2009,08,05,02,03,11.10
2009,08,05,02,04,11.10
2009,08,05,02,05,11.10
2009,08,05,02,06,11.10
2009,08,05,02,07,11.10
2009,08,05,02,08,11.10
2009,08,05,02,09,11.10
2009,08,05,02,10,11.10
2009,08,05,02,11,11.10
2009,08,05,02,12,11.10
2009,08,05,02,13,11.10
2009,08,05,02,14,11.10
2009,08,05,02,15,11.10
2009,08,05,02,16,11.10
2009,08,05,02,17,11.00
2009,08,05,02,18,11.00
2009,08,05,02,19,11.00
2009,08,05,02,20,11.00
2009,08,05,02,21,11.00
2009,08,05,02,22,11.00
2009,08,05,02,23,11.00
2009,08,05,02,24,10.90
2009,08,05,02,25,10.90
2009,08,05,02,26,10.90
2009,08,05,02,27,10.90
2009,08,05,02,28,10.90
2009,08,05,02,29,10.90
2009,08,05,02,30,10.90
2009,08,05,02,31,10.90
2009,08,05,02,32,10.90
2009,08,05,02,33,10.90
2009,08,05,02,34,10.90
2009,08,05,02,35,10.90
2009,08,05,02,36,10.90
2009,08,05,02,37,10.90
2009,08,05,02,38,10.90
2009,08,05,02,39,10.90
2009,08,05,02,40,10.80
2009,08,05,02,41,10.80
2009,08,05,02,42,10.80
2009,08,05,02,43,10.80
2009,08,05,02,44,10.80
2009,08,05,02,45,10.80
2009,08,05,02,46,10.80
2009,08,05,02,47,10.80
2009,08,05,02,48,10.80
2009,08,05,02,49,10.80
2009,08,05,02,50,10.80
2009,08,05,02,51,10.80
2009,08,05,02,52,10.80
2009,08,05,02,53,10.80
2009,08,05,02,54,10.80
2009,08,05,02,55,10.80
2009,08,05,02,56,10.70
2009,08,05,02,57,10.70
2009,08,05,02,58,10.70
2009,08,05,02,59,10.70
2009,08,05,03,00,10.70
2009,08,05,03,01,10.70
2009,08,05,03,02,10.70
2009,08,05,03,03,10.70
2009,08,05,03,04,10.70
2009,08,05,03,05,10.70
2009,08,05,03,06,10.70
2009,08,05,03,07,10.70
2009,08,05,03,08,10.70
2009,08,05,03,09,10.60
2009,08,05,03,10,10.60
2009,08,05,03,11,10.60
2009,08,05,03,12,10.60
2009,08,05,03,13,10.60
2009,08,05,03,14,10.60
2009,08,05,03,15,10.60
2009,08,05,03,16,10.60
2009,08,05,03,17,10.60
2009,08,05,03,18,10.60
2009,08,05,03,19,10.60
2009,08,05,03,20,10.60
2009,08,05,03,21,10.50
2009,08,05,03,22,10.50
2009,08,05,03,23,10.50
2009,08,05,03,24,10.50
2009,08,05,03,25,10.50
2009,08,05,03,26,10.40
2009,08,05,03,27,10.40
2009,08,05,03,28,10.40
2009,08,05,03,29,10.40
2009,08,05,03,30,10.40
2009,08,05,03,31,10.40
2009,08,05,03,32,10.40
2009,08,05,03,33,10.40
2009,08,05,03,34,10.40
2009,08,05,03,35,10.40
2009,08,05,03,36,10.40
2009,08,05,03,37,10.40
2009,08,05,03,38,10.40
2009,08,05,03,39,10.30
2009,08,05,03,40,10.30
2009,08,05,03,41,10.30
2009,08,05,03,42,10.30
2009,08,05,03,43,10.30
2009,08,05,03,44,10.30
2009,08,05,03,45,10.30
2009,08,05,03,46,10.30
2009,08,05,03,47,10.30
2009,08,05,03,48,10.30
2009,08,05,03,49,10.30
2009,08,05,03,50,10.30
2009,08,05,03,51,10.30
2009,08,05,03,52,10.30
2009,08,05,03,53,10.30
2009,08,05,03,54,10.30
2009,08,05,03,55,10.20
2009,08,05,03,56,10.20
2009,08,05,03,57,10.20
2009,08,05,03,58,10.20
2009,08,05,03,59,10.20
2009,08,05,04,00,10.20
2009,08,05,04,01,10.20
2009,08,05,04,02,10.20
2009,08,05,04,03,10.20
2009,08,05,04,14,10.10
2009,08,05,04,17,10.10
2009,08,05,04,18,10.10
2009,08,05,04,19,10.10
2009,08,05,04,20,10.10
2009,08,05,04,21,10.00
2009,08,05,04,22,10.00
2009,08,05,04,23,10.00
2009,08,05,04,24,10.00
2009,08,05,04,25,10.00
2009,08,05,04,26,10.00
2009,08,05,04,27,10.00
2009,08,05,04,28,10.00
2009,08,05,04,29,10.00
2009,08,05,04,30,10.00
2009,08,05,04,31,10.00
2009,08,05,04,32,10.00
2009,08,05,04,33,10.00
2009,08,05,04,34,10.00
2009,08,05,04,35,10.00
2009,08,05,04,36,10.00
2009,08,05,04,37,10.00
2009,08,05,04,38,9.90
2009,08,05,04,39,9.90
2009,08,05,04,40,9.90
2009,08,05,04,41,9.90
2009,08,05,04,42,9.90
2009,08,05,04,43,9.90
2009,08,05,04,44,9.90
2009,08,05,04,45,9.90
2009,08,05,04,46,9.90
2009,08,05,04,47,9.90
2009,08,05,04,48,9.90
2009,08,05,04,49,9.90
2009,08,05,04,50,9.90
2009,08,05,04,51,9.90
2009,08,05,04,52,9.80
2009,08,05,04,53,9.80
2009,08,05,04,54,9.80
2009,08,05,04,55,9.80
2009,08,05,04,56,9.80
2009,08,05,04,57,9.80
2009,08,05,04,58,9.80
2009,08,05,04,59,9.80
2009,08,05,05,00,9.80
2009,08,05,05,01,9.80
2009,08,05,05,02,9.80
2009,08,05,05,03,9.80
2009,08,05,05,04,9.70
2009,08,05,05,05,9.70
2009,08,05,05,06,9.70
2009,08,05,05,07,9.70
2009,08,05,05,08,9.70
2009,08,05,05,09,9.70
2009,08,05,05,10,9.70
2009,08,05,05,11,9.70
2009,08,05,05,12,9.70
2009,08,05,05,13,9.70
2009,08,05,05,14,9.70
2009,08,05,05,15,9.70
2009,08,05,05,16,9.70
2009,08,05,05,17,9.70
2009,08,05,05,18,9.60
2009,08,05,05,19,9.60
2009,08,05,05,20,9.60
2009,08,05,05,21,9.60
2009,08,05,05,22,9.60
2009,08,05,05,23,9.60
2009,08,05,05,24,9.60
2009,08,05,05,25,9.60
2009,08,05,05,26,9.60
2009,08,05,05,27,9.50
2009,08,05,05,28,9.50
2009,08,05,05,29,9.50
2009,08,05,05,30,9.50
2009,08,05,05,31,9.40
2009,08,05,05,32,9.40
2009,08,05,05,33,9.40
2009,08,05,05,34,9.40
2009,08,05,05,35,9.40
2009,08,05,05,36,9.40
2009,08,05,05,37,9.40
2009,08,05,05,38,9.30
2009,08,05,05,39,9.30
2009,08,05,05,40,9.30
2009,08,05,05,41,9.30
2009,08,05,05,42,9.30
2009,08,05,05,43,9.30
2009,08,05,05,44,9.30
2009,08,05,05,45,9.30
2009,08,05,05,46,9.30
2009,08,05,05,47,9.20
2009,08,05,05,48,9.20
2009,08,05,05,49,9.20
2009,08,05,05,50,9.20
2009,08,05,05,51,9.20
2009,08,05,05,52,9.20
2009,08,05,05,53,9.20
2009,08,05,05,54,9.20
2009,08,05,05,55,9.20
2009,08,05,05,56,9.20
2009,08,05,05,57,9.10
2009,08,05,05,58,9.10
2009,08,05,05,59,9.10
2009,08,05,06,00,9.10
2009,08,05,06,01,9.10
2009,08,05,06,02,9.10
2009,08,05,06,03,9.10
2009,08,05,06,04,9.10
2009,08,05,06,05,9.10
2009,08,05,06,06,9.10
2009,08,05,06,07,9.10
2009,08,05,06,08,9.10
2009,08,05,06,09,9.10
2009,08,05,06,10,9.10
2009,08,05,06,11,9.20
2009,08,05,06,12,9.20
2009,08,05,06,13,9.20
2009,08,05,06,14,9.20
2009,08,05,06,15,9.20
2009,08,05,06,16,9.20
2009,08,05,06,17,9.20
2009,08,05,06,18,9.20
2009,08,05,06,19,9.20
2009,08,05,06,20,9.20
2009,08,05,06,21,9.30
2009,08,05,06,22,9.30
2009,08,05,06,23,9.30
2009,08,05,06,24,9.30
2009,08,05,06,25,9.30
2009,08,05,06,26,9.30
2009,08,05,06,27,9.30
2009,08,05,06,28,9.30
2009,08,05,06,29,9.30
2009,08,05,06,30,9.40
2009,08,05,06,31,9.40
2009,08,05,06,32,9.40
2009,08,05,06,33,9.50
2009,08,05,06,34,9.50
2009,08,05,06,35,9.50
2009,08,05,06,36,9.50
2009,08,05,06,37,9.60
2009,08,05,06,38,9.60
2009,08,05,06,39,9.60
2009,08,05,06,40,9.60
2009,08,05,06,41,9.70
2009,08,05,06,42,9.70
2009,08,05,06,43,9.70
2009,08,05,06,44,9.80
2009,08,05,06,45,9.80
2009,08,05,06,46,9.80
2009,08,05,06,47,9.90
2009,08,05,06,48,9.90
2009,08,05,06,49,10.00
2009,08,05,06,50,10.00
2009,08,05,06,51,10.10
2009,08,05,06,52,10.10
2009,08,05,06,53,10.10
2009,08,05,06,54,10.20
2009,08,05,06,55,10.30
2009,08,05,06,56,10.30
2009,08,05,06,57,10.40
2009,08,05,06,58,10.50
2009,08,05,06,59,10.60
2009,08,05,07,00,10.70
2009,08,05,07,01,10.80
2009,08,05,07,02,10.90
2009,08,05,07,03,11.00
2009,08,05,07,04,11.10
2009,08,05,07,05,11.10
2009,08,05,07,06,11.30
2009,08,05,07,07,11.40
2009,08,05,07,08,11.50
2009,08,05,07,09,11.60
2009,08,05,07,10,11.70
2009,08,05,07,11,11.70
2009,08,05,07,12,11.80
2009,08,05,07,13,11.90
2009,08,05,07,14,12.00
2009,08,05,07,15,12.00
2009,08,05,07,16,12.10
2009,08,05,07,17,12.10
2009,08,05,07,18,12.20
2009,08,05,07,19,12.20
2009,08,05,07,20,12.20
2009,08,05,07,21,12.30
2009,08,05,07,22,12.30
2009,08,05,07,23,12.30
2009,08,05,07,24,12.40
2009,08,05,07,25,12.40
2009,08,05,07,26,12.50
2009,08,05,07,27,12.50
2009,08,05,07,28,12.50
2009,08,05,07,29,12.60
2009,08,05,07,30,12.60
2009,08,05,07,31,12.70
2009,08,05,07,32,12.70
2009,08,05,07,33,12.80
2009,08,05,07,34,12.80
2009,08,05,07,35,12.90
2009,08,05,07,36,12.90
2009,08,05,07,37,12.90
2009,08,05,07,38,12.90
2009,08,05,07,39,13.00
2009,08,05,07,40,13.00
2009,08,05,07,41,13.10
2009,08,05,07,42,13.10
2009,08,05,07,43,13.10
2009,08,05,07,44,13.10
2009,08,05,07,45,13.20
2009,08,05,07,46,13.20
2009,08,05,07,47,13.20
2009,08,05,07,48,13.20
2009,08,05,07,49,13.20
2009,08,05,07,50,13.30
2009,08,05,07,51,13.30
2009,08,05,07,52,13.30
2009,08,05,07,53,13.30
2009,08,05,07,54,13.40
2009,08,05,07,55,13.40
2009,08,05,07,56,13.50
2009,08,05,07,57,13.50
2009,08,05,07,58,13.50
2009,08,05,07,59,13.60
2009,08,05,08,00,13.60
2009,08,05,08,01,13.60
2009,08,05,08,02,13.60
2009,08,05,08,03,13.70
2009,08,05,08,04,13.70
2009,08,05,08,05,13.80
2009,08,05,08,06,13.80
2009,08,05,08,07,13.80
2009,08,05,08,08,13.80
2009,08,05,08,09,13.80
2009,08,05,08,10,13.80
2009,08,05,08,11,13.80
2009,08,05,08,12,13.70
2009,08,05,08,13,13.70
2009,08,05,08,14,13.70
2009,08,05,08,15,13.60
2009,08,05,08,16,13.60
2009,08,05,08,17,13.60
2009,08,05,08,18,13.60
2009,08,05,08,19,13.60
2009,08,05,08,20,13.60
2009,08,05,08,21,13.60
2009,08,05,08,22,13.60
2009,08,05,08,23,13.60
2009,08,05,08,24,13.60
2009,08,05,08,25,13.60
2009,08,05,08,26,13.60
2009,08,05,08,27,13.70
2009,08,05,08,28,13.70
2009,08,05,08,29,13.70
2009,08,05,08,30,13.70
2009,08,05,08,31,13.70
2009,08,05,08,32,13.60
2009,08,05,08,33,13.60
2009,08,05,08,34,13.60
2009,08,05,08,35,13.60
2009,08,05,08,36,13.60
2009,08,05,08,37,13.60
2009,08,05,08,38,13.60
2009,08,05,08,39,13.60
2009,08,05,08,40,13.60
2009,08,05,08,41,13.60
2009,08,05,08,42,13.60
2009,08,05,08,43,13.60
2009,08,05,08,44,13.60
2009,08,05,08,45,13.60
2009,08,05,08,46,13.60
2009,08,05,08,47,13.70
2009,08,05,08,48,13.70
2009,08,05,08,49,13.70
2009,08,05,08,50,13.70
2009,08,05,08,51,13.80
2009,08,05,08,52,13.80
2009,08,05,08,53,13.80
2009,08,05,08,54,13.90
2009,08,05,08,55,13.90
2009,08,05,08,56,13.90
2009,08,05,08,57,14.00
2009,08,05,08,58,14.00
2009,08,05,08,59,14.10
2009,08,05,09,00,14.10
2009,08,05,09,01,14.10
2009,08,05,09,02,14.20
2009,08,05,09,03,14.20
2009,08,05,09,04,14.20
2009,08,05,09,05,14.20
2009,08,05,09,06,14.20
2009,08,05,09,07,14.30
2009,08,05,09,08,14.30
2009,08,05,09,09,14.30
2009,08,05,09,10,14.40
2009,08,05,09,11,14.40
2009,08,05,09,12,14.40
2009,08,05,09,13,14.40
2009,08,05,09,14,14.50
2009,08,05,09,15,14.60
2009,08,05,09,16,14.70
2009,08,05,09,17,14.80
2009,08,05,09,18,15.00
2009,08,05,09,19,15.00
2009,08,05,09,20,15.10
2009,08,05,09,21,15.20
2009,08,05,09,22,15.30
2009,08,05,09,23,15.40
2009,08,05,09,24,15.40
2009,08,05,09,25,15.40
2009,08,05,09,26,15.50
2009,08,05,09,27,15.50
2009,08,05,09,28,15.50
2009,08,05,09,29,15.60
2009,08,05,09,30,15.70
2009,08,05,09,31,15.70
2009,08,05,09,32,15.80
2009,08,05,09,33,15.80
2009,08,05,09,34,15.90
2009,08,05,09,35,15.90
2009,08,05,09,36,15.90
2009,08,05,09,37,15.90
2009,08,05,09,38,16.00
2009,08,05,09,39,16.00
2009,08,05,09,40,16.10
2009,08,05,09,41,16.20
2009,08,05,09,42,16.20
2009,08,05,09,43,16.20
2009,08,05,09,44,16.20
2009,08,05,09,45,16.20
2009,08,05,09,46,16.20
2009,08,05,09,47,16.20
2009,08,05,09,48,16.20
2009,08,05,09,49,16.10
2009,08,05,09,50,16.00
2009,08,05,09,51,16.00
2009,08,05,09,52,16.10
2009,08,05,09,53,16.10
2009,08,05,09,54,16.20
2009,08,05,09,55,16.20
2009,08,05,09,56,16.30
2009,08,05,09,57,16.30
2009,08,05,09,58,16.30
2009,08,05,09,59,16.30
2009,08,05,10,00,16.20
2009,08,05,10,01,16.20
2009,08,05,10,02,16.30
2009,08,05,10,03,16.30
2009,08,05,10,04,16.40
2009,08,05,10,05,16.50
2009,08,05,10,06,16.50
2009,08,05,10,07,16.60
2009,08,05,10,08,16.70
2009,08,05,10,09,16.80
2009,08,05,10,10,16.70
2009,08,05,10,11,16.70
2009,08,05,10,12,16.70
2009,08,05,10,13,16.70
2009,08,05,10,14,16.70
2009,08,05,10,15,16.70
2009,08,05,10,16,16.80
2009,08,05,10,17,16.80
2009,08,05,10,18,16.80
2009,08,05,10,19,16.70
2009,08,05,10,20,16.70
2009,08,05,10,21,16.70
2009,08,05,10,22,16.80
2009,08,05,10,23,16.90
2009,08,05,10,24,17.00
2009,08,05,10,25,17.00
2009,08,05,10,26,17.10
2009,08,05,10,27,17.10
2009,08,05,10,28,17.10
2009,08,05,10,29,17.10
2009,08,05,10,30,17.20
2009,08,05,10,31,17.20
2009,08,05,10,32,17.20
2009,08,05,10,33,17.20
2009,08,05,10,34,17.30
2009,08,05,10,35,17.40
2009,08,05,10,36,17.50
2009,08,05,10,37,17.70
2009,08,05,10,38,17.80
2009,08,05,10,39,17.90
2009,08,05,10,40,17.90
2009,08,05,10,41,17.80
2009,08,05,10,42,17.80
2009,08,05,10,43,17.80
2009,08,05,10,44,17.70
2009,08,05,10,45,17.70
2009,08,05,10,46,17.70
2009,08,05,10,47,17.80
2009,08,05,10,48,17.90
2009,08,05,10,49,17.90
2009,08,05,10,50,17.90
2009,08,05,10,51,18.00
2009,08,05,10,52,18.00
2009,08,05,10,53,18.00
2009,08,05,10,54,18.00
2009,08,05,10,55,18.00
2009,08,05,10,56,17.90
2009,08,05,10,57,17.80
2009,08,05,10,58,17.80
2009,08,05,10,59,17.90
2009,08,05,11,00,17.90
2009,08,05,11,01,18.00
2009,08,05,11,02,18.00
2009,08,05,11,03,18.10
2009,08,05,11,04,18.20
2009,08,05,11,05,18.20
2009,08,05,11,06,18.10
2009,08,05,11,07,18.10
2009,08,05,11,08,18.00
2009,08,05,11,09,17.90
2009,08,05,11,10,17.80
2009,08,05,11,11,17.80
2009,08,05,11,12,17.80
2009,08,05,11,13,17.70
2009,08,05,11,14,17.70
2009,08,05,11,15,17.70
2009,08,05,11,16,17.70
2009,08,05,11,17,17.70
2009,08,05,11,18,17.80
2009,08,05,11,19,17.80
2009,08,05,11,20,18.00
2009,08,05,11,21,18.10
2009,08,05,11,22,18.20
2009,08,05,11,23,18.20
2009,08,05,11,24,18.30
2009,08,05,11,25,18.30
2009,08,05,11,26,18.30
2009,08,05,11,27,18.20
2009,08,05,11,28,18.20
2009,08,05,11,29,18.20
2009,08,05,11,30,18.30
2009,08,05,11,31,18.40
2009,08,05,11,32,18.40
2009,08,05,11,33,18.40
2009,08,05,11,34,18.50
2009,08,05,11,35,18.50
2009,08,05,11,36,18.50
2009,08,05,11,37,18.50
2009,08,05,11,38,18.50
2009,08,05,11,39,18.40
2009,08,05,11,40,18.40
2009,08,05,11,41,18.50
2009,08,05,11,42,18.60
2009,08,05,11,43,18.60
2009,08,05,11,44,18.70
2009,08,05,11,45,18.80
2009,08,05,11,46,19.00
2009,08,05,11,47,19.10
2009,08,05,11,48,19.20
2009,08,05,11,49,19.30
2009,08,05,11,50,19.50
2009,08,05,11,51,19.60
2009,08,05,11,52,19.60
2009,08,05,11,53,19.60
2009,08,05,11,54,19.60
2009,08,05,11,55,19.60
2009,08,05,11,56,19.70
2009,08,05,11,57,19.80
2009,08,05,11,58,19.70
2009,08,05,11,59,19.70
2009,08,05,12,00,19.80
2009,08,05,12,01,19.80
2009,08,05,12,02,19.90
2009,08,05,12,03,19.90
2009,08,05,12,04,20.00
2009,08,05,12,05,20.10
2009,08,05,12,06,20.20
2009,08,05,12,07,20.20
2009,08,05,12,08,20.30
2009,08,05,12,09,20.30
2009,08,05,12,10,20.40
2009,08,05,12,11,20.40
2009,08,05,12,12,20.30
2009,08,05,12,13,20.20
2009,08,05,12,14,20.20
2009,08,05,12,15,20.20
2009,08,05,12,16,20.20
2009,08,05,12,17,20.20
2009,08,05,12,18,20.20
2009,08,05,12,19,20.10
2009,08,05,12,20,20.10
2009,08,05,12,21,20.10
2009,08,05,12,22,20.10
2009,08,05,12,23,20.10
2009,08,05,12,24,20.10
2009,08,05,12,25,20.00
2009,08,05,12,26,19.90
2009,08,05,12,27,19.90
2009,08,05,12,28,19.90
2009,08,05,12,29,19.70
2009,08,05,12,30,19.60
2009,08,05,12,31,19.50
2009,08,05,12,32,19.40
2009,08,05,12,33,19.40
2009,08,05,12,34,19.30
2009,08,05,12,35,19.20
2009,08,05,12,36,19.30
2009,08,05,12,37,19.30
2009,08,05,12,38,19.30
2009,08,05,12,39,19.30
2009,08,05,12,40,19.40
2009,08,05,12,41,19.50
2009,08,05,12,42,19.50
2009,08,05,12,43,19.50
2009,08,05,12,44,19.50
2009,08,05,12,45,19.60
2009,08,05,12,46,19.60
2009,08,05,12,47,19.60
2009,08,05,12,48,19.60
2009,08,05,12,49,19.70
2009,08,05,12,50,19.80
2009,08,05,12,51,19.90
2009,08,05,12,52,19.90
2009,08,05,12,53,20.00
2009,08,05,12,54,19.90
2009,08,05,12,55,19.90
2009,08,05,12,56,19.80
2009,08,05,12,57,19.80
2009,08,05,12,58,19.80
2009,08,05,12,59,19.80
2009,08,05,13,00,19.80
2009,08,05,13,01,19.90
2009,08,05,13,02,20.00
2009,08,05,13,03,20.00
2009,08,05,13,04,20.10
2009,08,05,13,05,20.20
2009,08,05,13,06,20.30
2009,08,05,13,07,20.40
2009,08,05,13,08,20.40
2009,08,05,13,09,20.30
2009,08,05,13,10,20.20
2009,08,05,13,11,20.20
2009,08,05,13,12,20.20
2009,08,05,13,13,20.10
2009,08,05,13,14,19.90
2009,08,05,13,15,19.80
2009,08,05,13,16,19.80
2009,08,05,13,17,19.80
2009,08,05,13,18,19.90
2009,08,05,13,19,19.90
2009,08,05,13,20,20.00
2009,08,05,13,21,20.10
2009,08,05,13,22,20.20
2009,08,05,13,23,20.30
2009,08,05,13,24,20.30
2009,08,05,13,25,20.20
2009,08,05,13,26,20.20
2009,08,05,13,27,20.20
2009,08,05,13,28,20.20
2009,08,05,13,29,20.30
2009,08,05,13,30,20.30
2009,08,05,13,31,20.30
2009,08,05,13,32,20.30
2009,08,05,13,33,20.30
2009,08,05,13,34,20.30
2009,08,05,13,35,20.30
2009,08,05,13,36,20.30
2009,08,05,13,37,20.30
2009,08,05,13,38,20.30
2009,08,05,13,39,20.30
2009,08,05,13,40,20.40
2009,08,05,13,41,20.40
2009,08,05,13,42,20.40
2009,08,05,13,43,20.50
2009,08,05,13,44,20.50
2009,08,05,13,45,20.50
2009,08,05,13,46,20.40
2009,08,05,13,47,20.20
2009,08,05,13,48,20.00
2009,08,05,13,49,20.00
2009,08,05,13,50,19.90
2009,08,05,13,51,20.00
2009,08,05,13,52,20.10
2009,08,05,13,53,20.20
2009,08,05,13,54,20.20
2009,08,05,13,55,20.10
2009,08,05,13,56,20.20
2009,08,05,13,57,20.20
2009,08,05,13,58,20.30
2009,08,05,13,59,20.30
2009,08,05,14,00,20.30
2009,08,05,14,01,20.30
2009,08,05,14,02,20.40
2009,08,05,14,03,20.30
2009,08,05,14,04,20.30
2009,08,05,14,05,20.30
2009,08,05,14,06,20.40
2009,08,05,14,07,20.50
2009,08,05,14,08,20.50
2009,08,05,14,09,20.40
2009,08,05,14,10,20.40
2009,08,05,14,11,20.40
2009,08,05,14,12,20.40
2009,08,05,14,13,20.30
2009,08,05,14,14,20.20
2009,08,05,14,15,20.20
2009,08,05,14,16,20.20
2009,08,05,14,17,20.20
2009,08,05,14,18,20.20
2009,08,05,14,19,20.30
2009,08,05,14,20,20.30
2009,08,05,14,21,20.20
2009,08,05,14,22,20.20
2009,08,05,14,23,20.10
2009,08,05,14,24,20.10
2009,08,05,14,25,20.10
2009,08,05,14,26,20.10
2009,08,05,14,27,20.20
2009,08,05,14,28,20.20
2009,08,05,14,29,20.30
2009,08,05,14,30,20.30
2009,08,05,14,31,20.20
2009,08,05,14,32,20.20
2009,08,05,14,33,20.20
2009,08,05,14,34,20.10
2009,08,05,14,35,20.10
2009,08,05,14,36,20.10
2009,08,05,14,37,20.20
2009,08,05,14,38,20.30
2009,08,05,14,39,20.30
2009,08,05,14,40,20.40
2009,08,05,14,41,20.50
2009,08,05,14,42,20.60
2009,08,05,14,43,20.60
2009,08,05,14,44,20.60
2009,08,05,14,45,20.60
2009,08,05,14,46,20.50
2009,08,05,14,47,20.60
2009,08,05,14,48,20.40
2009,08,05,14,49,20.30
2009,08,05,14,50,20.10
2009,08,05,14,51,20.10
2009,08,05,14,52,20.10
2009,08,05,14,53,20.10
2009,08,05,14,54,20.00
2009,08,05,14,55,20.00
2009,08,05,14,56,20.10
2009,08,05,14,57,20.10
2009,08,05,14,58,20.10
2009,08,05,14,59,20.20
2009,08,05,15,00,20.20
2009,08,05,15,01,20.30
2009,08,05,15,02,20.30
2009,08,05,15,03,20.30
2009,08,05,15,04,20.20
2009,08,05,15,05,20.20
2009,08,05,15,06,20.00
2009,08,05,15,07,20.10
2009,08,05,15,08,20.10
2009,08,05,15,09,20.20
2009,08,05,15,10,20.20
2009,08,05,15,11,20.20
2009,08,05,15,12,20.20
2009,08,05,15,13,20.20
2009,08,05,15,14,20.10
2009,08,05,15,15,20.20
2009,08,05,15,16,20.20
2009,08,05,15,17,20.30
2009,08,05,15,18,20.40
2009,08,05,15,19,20.40
2009,08,05,15,20,20.40
2009,08,05,15,21,20.40
2009,08,05,15,22,20.30
2009,08,05,15,23,20.20
2009,08,05,15,24,20.20
2009,08,05,15,25,20.20
2009,08,05,15,26,20.30
2009,08,05,15,27,20.30
2009,08,05,15,28,20.30
2009,08,05,15,29,20.30
2009,08,05,15,30,20.30
2009,08,05,15,31,20.30
2009,08,05,15,32,20.40
2009,08,05,15,33,20.50
2009,08,05,15,34,20.50
2009,08,05,15,35,20.50
2009,08,05,15,36,20.50
2009,08,05,15,37,20.50
2009,08,05,15,38,20.50
2009,08,05,15,39,20.60
2009,08,05,15,40,20.60
2009,08,05,15,41,20.60
2009,08,05,15,42,20.50
2009,08,05,15,43,20.40
2009,08,05,15,44,20.40
2009,08,05,15,45,20.40
2009,08,05,15,46,20.40
2009,08,05,15,47,20.50
2009,08,05,15,48,20.50
2009,08,05,15,49,20.70
2009,08,05,15,50,20.80
2009,08,05,15,51,20.90
2009,08,05,15,52,20.90
2009,08,05,15,53,20.70
2009,08,05,15,54,20.60
2009,08,05,15,55,20.60
2009,08,05,15,56,20.60
2009,08,05,15,57,20.70
2009,08,05,15,58,20.70
2009,08,05,15,59,20.70
2009,08,05,16,00,20.70
2009,08,05,16,01,20.70
2009,08,05,16,02,20.70
2009,08,05,16,03,20.60
2009,08,05,16,04,20.50
2009,08,05,16,05,20.50
2009,08,05,16,06,20.40
2009,08,05,16,07,20.40
2009,08,05,16,08,20.40
2009,08,05,16,09,20.40
2009,08,05,16,10,20.40
2009,08,05,16,11,20.40
2009,08,05,16,12,20.50
2009,08,05,16,13,20.40
2009,08,05,16,14,20.50
2009,08,05,16,15,20.50
2009,08,05,16,16,20.50
2009,08,05,16,17,20.50
2009,08,05,16,18,20.60
2009,08,05,16,19,20.60
2009,08,05,16,20,20.60
2009,08,05,16,21,20.60
2009,08,05,16,22,20.70
2009,08,05,16,23,20.70
2009,08,05,16,24,20.70
2009,08,05,16,25,20.80
2009,08,05,16,26,20.90
2009,08,05,16,27,20.90
2009,08,05,16,28,21.00
2009,08,05,16,29,21.00
2009,08,05,16,30,20.90
2009,08,05,16,31,21.00
2009,08,05,16,32,21.00
2009,08,05,16,33,21.10
2009,08,05,16,34,21.10
2009,08,05,16,35,21.10
2009,08,05,16,36,21.10
2009,08,05,16,37,21.00
2009,08,05,16,38,20.90
2009,08,05,16,39,20.80
2009,08,05,16,40,20.80
2009,08,05,16,41,20.80
2009,08,05,16,42,20.80
2009,08,05,16,43,20.80
2009,08,05,16,44,20.70
2009,08,05,16,45,20.70
2009,08,05,16,46,20.70
2009,08,05,16,47,20.60
2009,08,05,16,48,20.60
2009,08,05,16,49,20.60
2009,08,05,16,50,20.50
2009,08,05,16,51,20.60
2009,08,05,16,52,20.60
2009,08,05,16,53,20.60
2009,08,05,16,54,20.60
2009,08,05,16,55,20.60
2009,08,05,16,56,20.60
2009,08,05,16,57,20.60
2009,08,05,16,58,20.60
2009,08,05,16,59,20.60
2009,08,05,17,00,20.60
2009,08,05,17,01,20.50
2009,08,05,17,02,20.40
2009,08,05,17,03,20.40
2009,08,05,17,04,20.30
2009,08,05,17,05,20.20
2009,08,05,17,06,20.10
2009,08,05,17,07,20.20
2009,08,05,17,08,20.20
2009,08,05,17,09,20.20
2009,08,05,17,10,20.10
2009,08,05,17,11,20.10
2009,08,05,17,12,20.10
2009,08,05,17,13,20.10
2009,08,05,17,14,20.10
2009,08,05,17,15,20.10
2009,08,05,17,16,20.10
2009,08,05,17,17,20.20
2009,08,05,17,18,20.20
2009,08,05,17,19,20.20
2009,08,05,17,20,20.20
2009,08,05,17,21,20.20
2009,08,05,17,22,20.20
2009,08,05,17,23,20.20
2009,08,05,17,24,20.20
2009,08,05,17,25,20.20
2009,08,05,17,26,20.20
2009,08,05,17,27,20.20
2009,08,05,17,28,20.20
2009,08,05,17,29,20.10
2009,08,05,17,30,20.10
2009,08,05,17,31,20.10
2009,08,05,17,32,20.10
2009,08,05,17,33,20.00
2009,08,05,17,34,19.90
2009,08,05,17,35,19.90
2009,08,05,17,36,19.90
2009,08,05,17,37,19.80